User: anonymous   Login
Location: Petrozavodsk
(61.7857°N, 34.3593°E)
Time: 18:11:49
(UTC+03:00)
Language:

Terra - Orbit

View from above orbital plane
View from above orbital plane
View from above satellite
View from above satellite

Ground track
Ground track

The orbit data is extracted from the following two-line orbital elements,

1 25994U 99068A   18323.23944450  .00000076  00000-0  26969-4 0  9998
2 25994  98.2141  35.8090 0001016  90.8254 269.3057 14.57129514  6408
Epoch (UTC): 19 November 2018 05:44:48
Eccentricity: 0.0001016
inclination: 98.2141°
perigee height: 702 km
apogee height: 703 km
right ascension of ascending node: 35.8090°
argument of perigee: 90.8254°
revolutions per day: 14.57129514
mean anomaly at epoch: 269.3057°
orbit number at epoch: 640

The dashed part of the orbit path shows where the satellite is in the earth's shadow,  

DLR